Regional Weather Roundup
Issued by NWS Mt. Holly, NJ

Home | Current Version | Previous Version | Text Only | Print | Product List | Glossary On
Versions: 1 2 3 4 5 6 7 8 9 10 11 12 13 14 15 16 17 18 19 20 21 22 23 24 25 26 27 28
000
ASUS41 KPHI 271312
RWRPHI

REGIONAL WEATHER ROUNDUP
NATIONAL WEATHER SERVICE MOUNT HOLLY NJ
900 AM EDT SAT AUG 27 2016

NOTE:  "FAIR" INDICATES FEW OR NO CLOUDS BELOW 12,000 FEET WITH NO
SIGNIFICANT WEATHER AND/OR OBSTRUCTIONS TO VISIBILITY.

 * = STATION DOES NOT REPORT PRECIPITATION (E.G. RAIN, SNOW, ETC.)
        OR FOG.

NJZ015>026-271400-
SOUTHERN NEW JERSEY

CITY           SKY/WX    TMP DP  RH WIND       PRES   REMARKS
POMONA         SUNNY     79  64  60 NE10      30.16S
WILDWOOD*        N/A     81  63  54 NE10      30.16R
MILLVILLE      SUNNY     78  67  68 NE7       30.17S
MOUNT HOLLY    SUNNY     77  65  66 NE7       30.17S
TRENTON        SUNNY     78  63  59 NE7       30.18R

$$
NJZ001>014-271400-
NORTHERN NEW JERSEY

CITY           SKY/WX    TMP DP  RH WIND       PRES   REMARKS
SUSSEX         LGT RAIN  71  66  84 CALM      30.22R
ANDOVER*         N/A     71  64  78 NE6       30.22R
MORRISTOWN     MOSUNNY   75  66  73 E5        30.20R
NEWARK         MOSUNNY   78  62  57 NE12      30.18R
TETERBORO      SUNNY     78  62  57 NE5       30.18R
CALDWELL       SUNNY     75  64  68 NE5       30.20R
SOMERVILLE     SUNNY     76  64  66 NW3       30.18R
ALLAIRE*       SUNNY     79  63  57 NE8       30.18S
TOMS RIVER*    SUNNY     79  63  57 NE9       30.17S

$$
PAZ043-044-047-054-055-060>062-066>071-271400-
EASTERN PENNSYLVANIA

CITY           SKY/WX    TMP DP  RH WIND       PRES   REMARKS
PHILADELPHIA   MOSUNNY   81  63  54 NE9       30.18R
NORTH PHILA    SUNNY     79  65  62 NE10      30.20R
BLUE BELL*     SUNNY     75  64  69 NE5       30.19R
DOYLESTOWN     SUNNY     78  67  68 N7        30.19S
QUAKERTOWN*    SUNNY     75  64  69 CALM      30.21S
POTTSTOWN      SUNNY     76  64  66 N8        30.21S
LANCASTER      SUNNY     77  68  73 CALM      30.20S
COATESVILLE    SUNNY     77  64  65 NE5       30.21F
READING        SUNNY     75  65  70 N5        30.19S
ALLENTOWN      SUNNY     75  64  68 CALM      30.21R
MOUNT POCONO   SUNNY     71  58  63 E7        30.27R
WILKES BARRE   SUNNY     71  63  75 N3        30.23S

$$
DEZALL-MDZ008-012-015-019-020-271400-
DELAWARE AND EASTERN MARYLAND

CITY           SKY/WX    TMP DP  RH WIND       PRES   REMARKS
WILMINGTON     SUNNY     80  65  59 N3        30.18S
DOVER          SUNNY     78  72  82 NE9       30.15S
GEORGETOWN     NOT AVBL
EASTON         SUNNY     81  73  78 NE5       30.20R
PATUXENT       MOSUNNY   81  67  62 E12       30.15R
OCEAN CITY     SUNNY     82  69  64 NE8       30.14R
WALLOPS ISLAND SUNNY     82  62  50 NE14G20   30.14R
CAMBRIDGE      SUNNY     77  66  69 NE7       30.15S
SALISBURY      SUNNY     79  67  66 NE9       30.15R

$$
PAZ001-021-NYZ056-072-MDZ011-DCZ001-271400-
OTHER NEARBY LOCATIONS

CITY           SKY/WX    TMP DP  RH WIND       PRES   REMARKS
HARRISBURG     MOSUNNY   76  69  79 CALM      30.20R
STATE COLLEGE  SUNNY     68  64  88 CALM      30.25S
WILLIAMSPORT   SUNNY     71  63  75 W5        30.22R
BINGHAMTON     SUNNY     66  62  87 NW3       30.26R
NEW YORK CITY    N/A     77  59  53 MISG        N/A
BALTIMORE      MOSUNNY   81  66  60 NE9       30.17S
WASHINGTON DC  MOSUNNY   82  70  66 NE9       30.17S

$$




USA.gov is the U.S. government's official web portal to all federal, state and local government web resources and services.